Location: Famechon
(49.7599°N, 2.0615°E)
Time: 19:16:18
(UTC+00:00)

Cosmos 2278 - Visible Passes

Search period start: 01 October 2023 00:00
Search period end: 11 October 2023 00:00
Orbit: 838 x 853 km, 71.1° (Epoch: 30 September)

Date Brightness Start Highest point End Pass type
(mag) Time Alt. Az. Time Alt. Az. Time Alt. Az.
01 Oct 6.2 00:34:25 10° NNW 00:35:36 16° NNW 00:35:36 16° NNW visible
01 Oct 6.3 19:03:13 10° WNW 19:06:10 14° NNW 19:09:07 10° N visible
01 Oct 6.3 22:37:27 10° N 22:39:43 13° NNE 22:39:43 13° NNE visible
02 Oct 6.2 00:20:34 10° NNW 00:21:34 15° NNW 00:21:34 15° NNW visible
02 Oct 6.3 18:49:15 10° WNW 18:52:16 14° NNW 18:55:18 10° N visible
02 Oct 6.3 22:23:37 10° N 22:25:45 13° NNE 22:25:45 13° NNE visible
03 Oct 6.3 00:06:42 10° NNW 00:07:36 14° NNW 00:07:36 14° NNW visible
03 Oct 6.2 18:35:17 10° WNW 18:38:22 15° NNW 18:41:28 10° N visible
03 Oct 6.3 22:09:47 10° N 22:11:49 13° NNE 22:11:49 13° NNE visible
03 Oct 6.4 23:52:51 10° NNW 23:53:41 14° NNW 23:53:41 14° NNW visible
04 Oct 6.2 18:21:19 10° WNW 18:24:28 15° NNW 18:27:37 10° N visible
04 Oct 6.2 21:55:57 10° N 21:57:56 13° NNE 21:57:56 13° NNE visible
04 Oct 6.4 23:39:00 10° NNW 23:39:48 14° NNW 23:39:48 14° NNW visible
05 Oct 6.2 18:07:21 10° WNW 18:10:33 15° NNW 18:13:47 10° N visible
05 Oct 6.2 21:42:07 10° N 21:44:04 13° NNE 21:44:04 13° NNE visible
05 Oct 6.4 23:25:08 10° NNW 23:25:56 14° NNW 23:25:56 14° NNW visible
06 Oct 6.1 17:53:23 10° WNW 17:56:40 15° NNW 17:59:56 10° N visible
06 Oct 6.2 21:28:16 10° N 21:30:14 13° NNE 21:30:14 13° NNE visible
06 Oct 6.4 23:11:16 10° NNW 23:12:06 14° NNW 23:12:06 14° NNW visible
07 Oct 6.2 21:14:27 10° N 21:16:26 12° NNE 21:16:26 12° NNE visible
07 Oct 6.4 22:57:26 10° NNW 22:58:18 14° NNW 22:58:18 14° NNW visible
08 Oct 6.1 21:00:37 10° N 21:02:38 12° NNE 21:02:38 12° NNE visible
08 Oct 6.3 22:43:34 10° NNW 22:44:31 15° NNW 22:44:31 15° NNW visible
09 Oct 6.1 20:46:47 10° N 20:48:52 12° NNE 20:48:52 12° NNE visible
09 Oct 6.3 22:29:42 10° NNW 22:30:44 15° NNW 22:30:44 15° NNW visible
10 Oct 6.1 20:32:57 10° N 20:35:06 12° NNE 20:35:06 12° NNE visible
10 Oct 6.3 22:15:51 10° NNW 22:16:59 15° N 22:16:59 15° N visible
